Location: Newark
(21.1200°N, 73.4000°E)
Time: 18:40:43
(UTC+00:00)

Vanguard 1 - All Passes

Search period start: 29 January 2020 00:00
Search period end: 08 February 2020 00:00
Orbit: 650 x 3833 km, 34.2° (Epoch: 28 January)

Date Brightness Start Highest point End Pass type
(mag) Time Alt. Az. Time Alt. Az. Time Alt. Az.
29 Jan - 05:06:31 10° S 05:11:06 12° SSE 05:14:55 10° SE daylight
29 Jan - 07:25:01 10° SW 07:34:33 42° SSE 07:40:11 10° E daylight
29 Jan - 09:49:03 10° W 09:55:14 44° NNW 09:59:39 10° NE daylight
29 Jan - 12:13:32 10° NW 12:16:24 16° N 12:19:23 10° NE daylight
29 Jan - 14:33:17 10° NW 14:37:51 37° NNE 14:44:37 10° E visible
29 Jan - 16:52:20 10° WNW 16:58:45 61° SSW 17:10:34 10° SE visible
29 Jan - 19:14:58 10° WSW 19:22:13 20° SSW 19:32:40 10° SSE visible
30 Jan - 05:24:27 10° S 05:32:57 19° SSE 05:38:59 10° ESE daylight
30 Jan - 07:45:54 10° SW 07:55:44 62° SSE 08:01:21 10° ENE daylight
30 Jan - 10:10:58 10° W 10:16:17 31° NNW 10:20:21 10° NE daylight
30 Jan - 12:34:52 10° NW 12:37:48 17° N 12:40:57 10° NE daylight
30 Jan - 14:54:00 10° NW 14:58:53 52° NNE 15:06:36 10° ESE visible
30 Jan - 17:13:32 10° W 17:20:02 43° SSW 17:31:29 10° SE night (unlit)
30 Jan - 19:38:49 10° SW 19:44:12 14° SSW 19:50:55 10° S visible
31 Jan - 05:43:55 10° SSW 05:54:39 27° SSE 06:01:26 10° E daylight
31 Jan - 08:07:12 10° WSW 08:16:49 88° SSE 08:22:18 10° ENE daylight
31 Jan - 10:32:59 10° WNW 10:37:27 23° NNW 10:41:06 10° NE daylight
31 Jan - 12:55:53 10° NW 12:59:09 19° NNE 13:02:49 10° ENE daylight
31 Jan - 15:14:46 10° WNW 15:19:52 75° NNE 15:28:20 10° ESE visible
31 Jan - 17:35:03 10° W 17:41:27 31° SSW 17:51:55 10° SSE night (unlit)
01 Feb - 03:46:26 10° S 03:51:17 12° SSE 03:55:28 10° SE daylight
01 Feb - 06:04:07 10° SSW 06:16:12 38° SSE 06:23:11 10° E daylight
01 Feb - 08:28:48 10° WSW 08:37:49 65° NNW 08:43:07 10° NE daylight
01 Feb - 10:55:01 10° WNW 10:58:43 19° NNW 11:01:57 10° NE daylight
01 Feb - 13:16:42 10° NW 13:20:24 25° NNE 13:24:47 10° ENE visible
01 Feb - 15:35:38 10° WNW 15:40:52 76° SSW 15:49:46 10° SE visible
01 Feb - 17:57:07 10° WSW 18:03:01 21° SSW 18:11:45 10° SSE night (unlit)
02 Feb - 04:03:32 10° S 04:13:25 18° SSE 04:20:41 10° ESE daylight
02 Feb - 06:24:49 10° SW 06:37:34 52° SSE 06:44:33 10° ENE daylight
02 Feb - 08:50:43 10° W 08:58:49 46° NNW 09:03:51 10° NE daylight
02 Feb - 11:16:50 10° NW 11:20:06 17° N 11:23:03 10° NE daylight
02 Feb - 13:37:25 10° NW 13:41:31 34° NNE 13:46:43 10° E visible
02 Feb - 15:56:40 10° WNW 16:01:58 51° SSW 16:10:50 10° SE visible
02 Feb - 18:20:16 10° SW 18:24:46 14° SSW 18:30:31 10° S night (unlit)
03 Feb - 04:22:37 10° SSW 04:35:20 25° SSE 04:43:41 10° E daylight
03 Feb - 06:45:57 10° SW 06:58:49 71° SSE 07:05:38 10° ENE daylight
03 Feb - 09:12:50 10° W 09:19:53 34° NNW 09:24:34 10° NE daylight
03 Feb - 11:38:20 10° NW 11:41:29 17° N 11:44:28 10° NE daylight
03 Feb - 13:58:09 10° NW 14:02:31 50° NNE 14:08:29 10° ESE visible
03 Feb - 16:18:00 10° W 16:23:11 34° SSW 16:31:27 10° SSE visible
04 Feb - 02:27:59 10° SSE 02:30:36 10° SSE 02:33:05 10° SE daylight
04 Feb - 04:42:31 10° SSW 04:57:04 34° SSE 05:05:49 10° E daylight
04 Feb - 07:07:27 10° WSW 07:19:57 87° NNW 07:26:33 10° ENE daylight
04 Feb - 09:35:03 10° WNW 09:41:04 27° NNW 09:45:20 10° NE daylight
04 Feb - 11:59:29 10° NW 12:02:51 19° N 12:06:08 10° ENE daylight
04 Feb - 14:18:57 10° WNW 14:23:29 79° NNE 14:29:59 10° ESE visible
04 Feb - 16:39:45 10° WSW 16:44:33 22° SSW 16:51:33 10° SSE visible
05 Feb - 02:42:40 10° S 02:53:02 16° SSE 03:01:12 10° ESE daylight
05 Feb - 05:02:58 10° SW 05:18:39 46° SSE 05:27:25 10° E daylight
05 Feb - 07:29:18 10° WSW 07:41:01 66° NNW 07:47:22 10° NE daylight
05 Feb - 09:57:15 10° WNW 10:02:21 22° NNW 10:06:13 10° NE daylight
05 Feb - 12:20:23 10° NW 12:24:07 24° NNE 12:27:55 10° ENE daylight
05 Feb - 14:39:52 10° WNW 14:44:26 65° SSW 14:51:10 10° SE visible
05 Feb - 17:02:25 10° WSW 17:06:03 14° SSW 17:10:40 10° S visible
06 Feb - 03:01:10 10° SSW 03:15:10 23° SSE 03:25:06 10° ESE daylight
06 Feb - 05:23:52 10° SW 05:40:05 60° SSE 05:48:41 10° ENE daylight
06 Feb - 07:51:26 10° W 08:02:06 50° NNW 08:08:08 10° NE daylight
06 Feb - 10:19:15 10° NW 10:23:44 20° N 10:27:17 10° NE daylight
06 Feb - 12:41:12 10° NW 12:45:17 34° NNE 12:49:38 10° E daylight
06 Feb - 15:01:02 10° W 15:05:29 40° SSW 15:11:58 10° SE visible
07 Feb - 03:20:40 10° SSW 03:37:05 31° SSE 03:47:46 10° E daylight
07 Feb - 05:45:11 10° SW 06:01:23 78° SSE 06:09:46 10° ENE daylight
07 Feb - 08:13:46 10° W 08:23:15 39° NNW 08:28:54 10° NE daylight
07 Feb - 10:40:58 10° NW 10:45:09 20° N 10:48:35 10° NE daylight
07 Feb - 13:02:00 10° NW 13:06:20 52° NNE 13:11:11 10° ESE daylight
07 Feb - 15:22:33 10° W 15:26:38 25° SSW 15:32:16 10° SSE visible
